Regional Weather Roundup
Issued by NWS

Home | Current Version | Previous Version | Text Only | Print | Product List | Glossary Off
Versions: 1 2 3 4 5 6 7 8 9 10 11 12 13 14 15 16 17 18 19 20 21 22 23 24 25 26 27 28 29 30 31 32 33 34 35 36 37 38 39 40 41 42 43 44 45 46 47 48 49 50

639
ASUS43 KMPX 280401
RWRMN
WEATHER ROUNDUP FOR MINNESOTA
NATIONAL WEATHER SERVICE TWIN CITIES/CHANHASSEN MN
1100 PM CDT SAT MAY 27 2017


NOTE: "FAIR" INDICATES FEW OR NO CLOUDS BELOW 12,000 FEET WITH NO
SIGNIFICANT WEATHER AND/OR OBSTRUCTIONS TO VISIBILITY. N/A MEANS
CURRENT SKY AND/OR WEATHER CONDITIONS ARE NOT AVAILABLE.

MNZ060>063-068>070-280500-
   Twin Cities Metro

CITY           SKY/WX    TMP DP  RH WIND       PRES   REMARKS
TWIN CITIES    MOCLDY    67  46  47 SW9       29.83F
ST PAUL        CLOUDY    62  52  69 SE3       29.83F
CRYSTAL        CLOUDY    64  47  53 S6        29.81F
BLAINE         CLOUDY    63  52  67 S6        29.82F
LAKEVILLE      MOCLDY    61  48  63 CALM      29.84F
EDEN PRAIRIE   CLOUDY    64  49  57 S7        29.82F
SOUTH ST PAUL  PTCLDY    64  47  53 SW6       29.83S
LAKE ELMO      FAIR      59  50  72 S5        29.84F
$$
MNZ001>005-007-008-013>017-022>024-027-028-280500-
   Northwest Minnesota

CITY           SKY/WX    TMP DP  RH WIND       PRES   REMARKS
BEMIDJI        MOCLDY    53  50  89 SE8       29.73F
HALLOCK        CLOUDY    55  48  76 W13       29.72R
ROSEAU         CLOUDY    61  48  63 W3        29.69F
WARROAD        MOCLDY    57  48  72 W5        29.69F
CROOKSTON      DRIZZLE   54  48  82 NW15      29.75R
FOSSTON        CLOUDY    55  46  71 S13       29.72R
DETROIT LAKES  LGT RAIN  55  50  82 NW6       29.77R
MOORHEAD       LGT RAIN  57  45  62 N8        29.76F
PARK RAPIDS    CLOUDY    59  47  64 SE8       29.73F
MAHNOMEN       CLOUDY    54  47  77 W21       29.75R
$$
MNZ006-009>011-018-025>026-280500-
   North Central Minnesota

CITY           SKY/WX    TMP DP  RH WIND       PRES   REMARKS
BAUDETTE       MOCLDY    57  45  64 S5        29.69F
FLAG ISLAND    CLOUDY    61  46  59 SW9       29.67S
INTL FALLS     CLOUDY    57  43  59 S5        29.71F
WASKISH        CLOUDY    57  46  67 S5        29.71F
BIG FORK       CLOUDY    59  46  63 SE5       29.74S
LONGVILLE      LGT RAIN  63  46  55 SW16G25   29.76R
GRAND RAPIDS   MOCLDY    57  46  66 VRB3      29.78S
CRANE LAKE     DRIZZLE   57  46  67 CALM      29.75F
COOK           CLOUDY    59  45  58 CALM      29.76F
WALKER         MOCLDY    56  47  73 N6        29.74F
$$
MNZ012-019>021-037-280500-
   Northeast Minnesota

CITY           SKY/WX    TMP DP  RH WIND       PRES   REMARKS
DULUTH         CLOUDY    63  43  48 W10       29.77F
ELY            CLOUDY    61  43  51 SW5       29.75F
HIBBING        PTCLDY    50  42  74 S3        29.75F
EVELETH        MOCLDY    53  40  62 CALM      29.77F
DULUTH HARBOR  CLOUDY    63  48  59 S5        29.76F
TWO HARBORS    PTCLDY    66  48  52 W7        29.74F
SILVER BAY     PTCLDY    55  46  71 CALM      29.74F
GRAND MARAIS     N/A     46  41  82 CALM      29.76F
G MARAIS ARPRT CLOUDY    55  37  50 CALM      29.79F
$$
MNZ029>031-032-039>041-046>048-054>057-064-280500-
   West Central Minnesota

CITY           SKY/WX    TMP DP  RH WIND       PRES   REMARKS
FERGUS FALLS   LGT RAIN  55  48  76 NW16G28   29.75R
WHEATON        PTCLDY    64  45  48 W13G24    29.81R
MORRIS         PTCLDY    61  48  63 SW14      29.78F
ALEXANDRIA     MOCLDY    62  44  51 SW13      29.80F
ELBOW LAKE     MOCLDY    60  48  64 S9        29.77F
WADENA         CLOUDY    59  45  58 S9        29.74F
GLENWOOD       CLEAR     57  45  62 S8        29.81F
APPLETON       PTCLDY    63  46  55 SW7       29.80F
BENSON         CLEAR     63  46  55 W8        29.82F
ORTONVILLE     PTCLDY    61  46  59 SW6       29.80F
MADISON        CLOUDY    63  48  59 SW9       29.82F
WILLMAR        FAIR      64  46  52 SW8       29.83F
$$
MNZ033>034-036-042>043-049>051-058-059-280500-
   Central Minnesota

CITY           SKY/WX    TMP DP  RH WIND       PRES   REMARKS
ST CLOUD       CLOUDY    57  47  69 S5        29.80F
SAUK CENTRE    FAIR      60  46  59 S8        29.80F
PAYNESVILLE    CLEAR     63  46  53 SW6       29.81F
AITKIN         PTCLDY    57  45  62 S5        29.76F
PINE RIVER     MOCLDY    63  45  51 SW12G20   29.81R
BRAINERD       CLEAR     57  44  62 S7        29.77F
STAPLES        MOCLDY    61  43  51 CALM      29.76F
LONG PRAIRIE   FAIR      59  43  55 S9        29.79F
LITTLE FALLS   PTCLDY    61  43  51 S5        29.79F
LITCHFIELD     MOCLDY    63  48  59 CALM      29.83F
BUFFALO        PTCLDY    64  46  51 S5        29.83S
MAPLE LAKE     PTCLDY    64  47  54 SW3       29.82F
HUTCHINSON     CLOUDY    65  48  55 SW5       29.84F
$$
MNZ037-044-045-052-053-280500-
   East Central Minnesota

CITY           SKY/WX    TMP DP  RH WIND       PRES   REMARKS
PRINCETON      CLOUDY    63  48  59 S3        29.81S
MORA           CLOUDY    59  45  58 S5        29.82S
CAMBRIDGE      PTCLDY    64  50  59 S3        29.79F
RUSH CITY      CLOUDY    62  47  58 S3        29.81S
MOOSE LAKE     CLOUDY    54  45  71 CALM      29.77S
HINCKLEY       FAIR      55  52  88 CALM      29.80S
CLOQUET        PTCLDY    61  39  44 SW3       29.78F
MCGREGOR       PTCLDY    57  46  67 CALM      29.78F
$$
MNZ071>073-080-081-089-090-097-098-280500-
   Southwest Minnesota

CITY           SKY/WX    TMP DP  RH WIND       PRES   REMARKS
MONTEVIDEO     CLOUDY    61  46  59 W8        29.82F
CANBY          PTCLDY    62  48  60 SW8       29.85S
MARSHALL       CLOUDY    61  48  62 SW12      29.85F
REDWOOD FALLS  CLOUDY    61  47  59 SW8       29.84F
OLIVIA         PTCLDY    61  45  55 SW7       29.83F
PIPESTONE      CLEAR     55  45  67 SW7       29.88F
WINDOM         CLOUDY    61  50  67 SW7       29.87F
WORTHINGTON    CLEAR     58  52  80 SW10      29.90F
JACKSON        CLOUDY    59  50  72 CALM      29.90F
TRACY          CLOUDY    60  50  70 SW8       29.86F
SLAYTON        PTCLDY    55  49  79 SW8       29.90S
$$
MNZ065>067-074>077-082>085-091>093-280500-
   South Central Minnesota

CITY           SKY/WX    TMP DP  RH WIND       PRES   REMARKS
MANKATO        MOCLDY    65  46  50 SW7       29.86F
NEW ULM        PTCLDY    63  50  63 SW7       29.85S
ST JAMES       CLOUDY    63  52  67 SW6       29.88S
FAIRMONT       CLOUDY    63  49  60 W7        29.88F
GLENCOE        PTCLDY    66  52  59 SW3       29.83S
FARIBAULT      MOCLDY    59  48  67 S5        29.86F
OWATONNA       MOCLDY    57  46  67 S6        29.86F
WASECA         CLOUDY    55  48  76 SE5       29.87F
ALBERT LEA     MOCLDY    57  54  88 CALM      29.88S
$$
MNZ078>079-086>088-094>096-280500-
   Southeast Minnesota

CITY           SKY/WX    TMP DP  RH WIND       PRES   REMARKS
ROCHESTER      CLEAR     57  52  83 SW5       29.88F
RED WING       PTCLDY    54  48  82 CALM      29.84F
STANTON        MOCLDY    61  47  61 S3        29.83F
DODGE CENTER   CLEAR     55  46  71 CALM      29.88S
WINONA         PTCLDY    55  55 100 CALM      29.85F
AUSTIN         CLEAR     54  50  87 CALM      29.87F
PRESTON        CLEAR     56  49  79 W5        29.87F
$$
ABBREVIATIONS USED IN REMARKS
   TC - TEMPERATURES IN CELSIUS
  WCI - WIND CHILL INDEX
   HX - HEAT INDEX
  VSB - VISIBILITY
$$




USA.gov is the U.S. government's official web portal to all federal, state and local government web resources and services.